Location: Kalberh�ni
(46.4610°N, 7.2453°E)
Time: 08:23:59
(UTC+00:00)

Cosmos 1455 - Pass Details

Date: 31 October 2021
Orbit: 496 x 520 km, 82.5° (Epoch: 27 November)

Event Time Altitude Azimuth Distance (km) Brightness Sun altitude
Rises 05:03:55 0° 346° (NNW) 2,596 5.5 -12.1°
Reaches altitude 10° 05:06:05 10° 342° (NNW) 1,707 4.6 -11.7°
Maximum altitude 05:09:43 54° 265° (W) 613 2.2 -11.1°
Drops below altitude 10° 05:13:20 10° 188° (S) 1,693 4.8 -10.5°
Sets 05:15:28 0° 183° (S) 2,572 5.8 -10.1°
